contact:dominique.lefevre@mio.osupytheas.fr, maurice.libes@osupytheas.fr, didier.mallarino@osupytheas.fr
Project:EMSO http://www.emso-fr.org/EMSO-France
Depth: 2436.0 m
Title:EMSO Ligure Ouest : Data MII capteur MICROCAT
DateTime_Computer,Latitude,Longitude,Temperature,Conductivity,Pressure,DateTime_Instrument
DateTime_Computer,Latitude,Longitude,degC,S m-1,dbar,DateTime_Instrument
2022-08-14T00:02:42Z,42.805,6.029,13.3010,4.60049,2470.624,2022-8-14T02:04:32Z
2022-08-14T00:05:46Z,42.805,6.029,13.3015,4.60052,2470.624,2022-8-14T02:07:35Z
2022-08-14T00:08:49Z,42.805,6.029,13.3011,4.60050,2470.646,2022-8-14T02:10:38Z
2022-08-14T00:11:52Z,42.805,6.029,13.3008,4.60054,2470.624,2022-8-14T02:13:41Z
2022-08-14T00:14:55Z,42.805,6.029,13.3014,4.60050,2470.624,2022-8-14T02:16:44Z
2022-08-14T00:17:58Z,42.805,6.029,13.3015,4.60049,2470.614,2022-8-14T02:19:47Z
2022-08-14T00:21:01Z,42.805,6.029,13.3009,4.60052,2470.614,2022-8-14T02:22:50Z
2022-08-14T00:24:04Z,42.805,6.029,13.3011,4.60055,2470.591,2022-8-14T02:25:53Z
2022-08-14T00:27:07Z,42.805,6.029,13.3012,4.60047,2470.586,2022-8-14T02:28:57Z
2022-08-14T00:30:11Z,42.805,6.029,13.3019,4.60049,2470.6,2022-8-14T02:32:00Z
2022-08-14T00:33:14Z,42.805,6.029,13.3009,4.60053,2470.577,2022-8-14T02:35:03Z
2022-08-14T00:36:17Z,42.805,6.029,13.3011,4.60056,2470.614,2022-8-14T02:38:06Z
2022-08-14T00:39:20Z,42.805,6.029,13.3010,4.60049,2470.6,2022-8-14T02:41:09Z
2022-08-14T00:42:23Z,42.805,6.029,13.3014,4.60050,2470.577,2022-8-14T02:44:12Z
2022-08-14T00:45:26Z,42.805,6.029,13.3011,4.60053,2470.577,2022-8-14T02:47:15Z
2022-08-14T00:48:29Z,42.805,6.029,13.3009,4.60052,2470.577,2022-8-14T02:50:18Z
2022-08-14T00:51:32Z,42.805,6.029,13.3011,4.60047,2470.6,2022-8-14T02:53:22Z
2022-08-14T00:54:36Z,42.805,6.029,13.3008,4.60047,2470.614,2022-8-14T02:56:25Z
2022-08-14T00:57:39Z,42.805,6.029,13.3015,4.60049,2470.553,2022-8-14T02:59:28Z
2022-08-14T01:00:42Z,42.805,6.029,13.3012,4.60047,2470.577,2022-8-14T03:02:31Z
2022-08-14T01:03:45Z,42.805,6.029,13.3010,4.60047,2470.553,2022-8-14T03:05:34Z
2022-08-14T01:06:48Z,42.805,6.029,13.3013,4.60049,2470.553,2022-8-14T03:08:37Z
2022-08-14T01:09:51Z,42.805,6.029,13.3010,4.60048,2470.614,2022-8-14T03:11:40Z
2022-08-14T01:12:54Z,42.805,6.029,13.3011,4.60052,2470.614,2022-8-14T03:14:43Z
2022-08-14T01:15:57Z,42.805,6.029,13.3015,4.60048,2470.567,2022-8-14T03:17:47Z
2022-08-14T01:19:01Z,42.805,6.029,13.3008,4.60051,2470.553,2022-8-14T03:20:50Z
2022-08-14T01:22:04Z,42.805,6.029,13.3009,4.60047,2470.53,2022-8-14T03:23:53Z
2022-08-14T01:25:07Z,42.805,6.029,13.3009,4.60046,2470.544,2022-8-14T03:26:56Z
2022-08-14T01:28:10Z,42.805,6.029,13.3011,4.60047,2470.553,2022-8-14T03:29:59Z
2022-08-14T01:31:13Z,42.805,6.029,13.3010,4.60047,2470.544,2022-8-14T03:33:02Z
2022-08-14T01:34:16Z,42.805,6.029,13.3012,4.60047,2470.553,2022-8-14T03:36:05Z
2022-08-14T01:37:19Z,42.805,6.029,13.3009,4.60047,2470.52,2022-8-14T03:39:08Z
2022-08-14T01:40:22Z,42.805,6.029,13.3014,4.60046,2470.507,2022-8-14T03:42:11Z
2022-08-14T01:43:25Z,42.805,6.029,13.3010,4.60051,2470.52,2022-8-14T03:45:15Z
2022-08-14T01:46:29Z,42.805,6.029,13.3011,4.60052,2470.53,2022-8-14T03:48:18Z
2022-08-14T01:49:32Z,42.805,6.029,13.3009,4.60051,2470.516,2022-8-14T03:51:21Z
2022-08-14T01:52:35Z,42.805,6.029,13.3011,4.60046,2470.483,2022-8-14T03:54:24Z
2022-08-14T01:55:38Z,42.805,6.029,13.3014,4.60049,2470.53,2022-8-14T03:57:27Z
2022-08-14T01:58:41Z,42.805,6.029,13.3012,4.60049,2470.52,2022-8-14T04:00:30Z
2022-08-14T02:01:44Z,42.805,6.029,13.3010,4.60049,2470.507,2022-8-14T04:03:33Z
2022-08-14T02:04:47Z,42.805,6.029,13.3007,4.60048,2470.483,2022-8-14T04:06:36Z
2022-08-14T02:07:50Z,42.805,6.029,13.3011,4.60047,2470.507,2022-8-14T04:09:40Z
2022-08-14T02:10:54Z,42.805,6.029,13.3014,4.60046,2470.497,2022-8-14T04:12:43Z
2022-08-14T02:13:57Z,42.805,6.029,13.3009,4.60047,2470.52,2022-8-14T04:15:46Z
2022-08-14T02:17:00Z,42.805,6.029,13.3011,4.60054,2470.483,2022-8-14T04:18:49Z
2022-08-14T02:20:03Z,42.805,6.029,13.3012,4.60049,2470.474,2022-8-14T04:21:52Z
2022-08-14T02:23:06Z,42.805,6.029,13.3009,4.60049,2470.52,2022-8-14T04:24:55Z
2022-08-14T02:26:09Z,42.805,6.029,13.3014,4.60049,2470.46,2022-8-14T04:27:58Z
2022-08-14T02:29:12Z,42.805,6.029,13.3012,4.60046,2470.46,2022-8-14T04:31:01Z
2022-08-14T02:32:15Z,42.805,6.029,13.3010,4.60046,2470.483,2022-8-14T04:34:05Z
2022-08-14T02:35:18Z,42.805,6.029,13.3009,4.60048,2470.483,2022-8-14T04:37:08Z
2022-08-14T02:38:22Z,42.805,6.029,13.3011,4.60047,2470.46,2022-8-14T04:40:11Z
2022-08-14T02:41:25Z,42.805,6.029,13.3013,4.60047,2470.497,2022-8-14T04:43:14Z
2022-08-14T02:44:28Z,42.805,6.029,13.3010,4.60049,2470.497,2022-8-14T04:46:17Z
2022-08-14T02:47:31Z,42.805,6.029,13.3007,4.60051,2470.497,2022-8-14T04:49:20Z
2022-08-14T02:50:34Z,42.805,6.029,13.3011,4.60051,2470.474,2022-8-14T04:52:23Z
2022-08-14T02:53:37Z,42.805,6.029,13.3011,4.60048,2470.437,2022-8-14T04:55:26Z
2022-08-14T02:56:40Z,42.805,6.029,13.3010,4.60052,2470.474,2022-8-14T04:58:30Z
2022-08-14T02:59:43Z,42.805,6.029,13.3014,4.60052,2470.437,2022-8-14T05:01:33Z
2022-08-14T03:02:47Z,42.805,6.029,13.3011,4.60053,2470.497,2022-8-14T05:04:36Z
2022-08-14T03:05:50Z,42.805,6.029,13.3010,4.60046,2470.46,2022-8-14T05:07:39Z
2022-08-14T03:08:53Z,42.805,6.029,13.3007,4.60046,2470.474,2022-8-14T05:10:42Z
2022-08-14T03:11:56Z,42.805,6.029,13.3009,4.60046,2470.483,2022-8-14T05:13:45Z
2022-08-14T03:14:59Z,42.805,6.029,13.3006,4.60046,2470.474,2022-8-14T05:16:48Z
2022-08-14T03:18:02Z,42.805,6.029,13.3008,4.60047,2470.474,2022-8-14T05:19:51Z
2022-08-14T03:21:05Z,42.805,6.029,13.3011,4.60046,2470.474,2022-8-14T05:22:54Z
2022-08-14T03:24:08Z,42.805,6.029,13.3008,4.60047,2470.45,2022-8-14T05:25:58Z
2022-08-14T03:27:12Z,42.805,6.029,13.3013,4.60048,2470.45,2022-8-14T05:29:01Z
2022-08-14T03:30:15Z,42.805,6.029,13.3014,4.60050,2470.437,2022-8-14T05:32:04Z
2022-08-14T03:33:18Z,42.805,6.029,13.3012,4.60048,2470.45,2022-8-14T05:35:07Z
2022-08-14T03:36:21Z,42.805,6.029,13.3009,4.60047,2470.46,2022-8-14T05:38:10Z
2022-08-14T03:39:24Z,42.805,6.029,13.3011,4.60047,2470.474,2022-8-14T05:41:13Z
2022-08-14T03:42:27Z,42.805,6.029,13.3011,4.60047,2470.46,2022-8-14T05:44:16Z
2022-08-14T03:45:30Z,42.805,6.029,13.3005,4.60046,2470.46,2022-8-14T05:47:19Z
2022-08-14T03:48:33Z,42.805,6.029,13.3011,4.60046,2470.474,2022-8-14T05:50:23Z
2022-08-14T03:51:37Z,42.805,6.029,13.3009,4.60047,2470.46,2022-8-14T05:53:26Z
2022-08-14T03:54:40Z,42.805,6.029,13.3010,4.60046,2470.437,2022-8-14T05:56:29Z
2022-08-14T03:57:43Z,42.805,6.029,13.3011,4.60046,2470.46,2022-8-14T05:59:32Z
2022-08-14T04:00:46Z,42.805,6.029,13.3010,4.60046,2470.437,2022-8-14T06:02:35Z
2022-08-14T04:03:49Z,42.805,6.029,13.3009,4.60046,2470.483,2022-8-14T06:05:38Z
2022-08-14T04:06:52Z,42.805,6.029,13.3011,4.60049,2470.437,2022-8-14T06:08:41Z
2022-08-14T04:09:55Z,42.805,6.029,13.3011,4.60047,2470.483,2022-8-14T06:11:44Z
2022-08-14T04:12:58Z,42.805,6.029,13.3011,4.60051,2470.427,2022-8-14T06:14:48Z
2022-08-14T04:16:02Z,42.805,6.029,13.3012,4.60049,2470.45,2022-8-14T06:17:51Z
2022-08-14T04:19:05Z,42.805,6.029,13.3009,4.60049,2470.46,2022-8-14T06:20:54Z
2022-08-14T04:22:08Z,42.805,6.029,13.3009,4.60048,2470.474,2022-8-14T06:23:57Z
2022-08-14T04:25:11Z,42.805,6.029,13.3010,4.60046,2470.474,2022-8-14T06:27:00Z
2022-08-14T04:28:14Z,42.805,6.029,13.3011,4.60047,2470.483,2022-8-14T06:30:03Z
2022-08-14T04:31:17Z,42.805,6.029,13.3009,4.60046,2470.45,2022-8-14T06:33:06Z
2022-08-14T04:34:20Z,42.805,6.029,13.3009,4.60046,2470.483,2022-8-14T06:36:09Z
2022-08-14T04:37:23Z,42.805,6.029,13.3009,4.60047,2470.474,2022-8-14T06:39:13Z
2022-08-14T04:40:27Z,42.805,6.029,13.3009,4.60049,2470.483,2022-8-14T06:42:16Z
2022-08-14T04:43:30Z,42.805,6.029,13.3013,4.60046,2470.46,2022-8-14T06:45:19Z
2022-08-14T04:46:33Z,42.805,6.029,13.3013,4.60049,2470.46,2022-8-14T06:48:22Z
2022-08-14T04:49:36Z,42.805,6.029,13.3009,4.60051,2470.474,2022-8-14T06:51:25Z
2022-08-14T04:52:39Z,42.805,6.029,13.3009,4.60049,2470.46,2022-8-14T06:54:28Z
2022-08-14T04:55:42Z,42.805,6.029,13.3009,4.60049,2470.497,2022-8-14T06:57:31Z
2022-08-14T04:58:45Z,42.805,6.029,13.3011,4.60046,2470.483,2022-8-14T07:00:34Z
2022-08-14T05:01:48Z,42.805,6.029,13.3009,4.60049,2470.46,2022-8-14T07:03:38Z
2022-08-14T05:04:51Z,42.805,6.029,13.3011,4.60046,2470.474,2022-8-14T07:06:41Z
2022-08-14T05:07:55Z,42.805,6.029,13.3013,4.60052,2470.483,2022-8-14T07:09:44Z
2022-08-14T05:10:58Z,42.805,6.029,13.3012,4.60047,2470.507,2022-8-14T07:12:47Z
2022-08-14T05:14:01Z,42.805,6.029,13.3011,4.60049,2470.483,2022-8-14T07:15:50Z
2022-08-14T05:17:04Z,42.805,6.029,13.3011,4.60049,2470.46,2022-8-14T07:18:53Z
2022-08-14T05:20:07Z,42.805,6.029,13.3010,4.60047,2470.497,2022-8-14T07:21:56Z
2022-08-14T05:23:10Z,42.805,6.029,13.3006,4.60047,2470.46,2022-8-14T07:24:59Z
2022-08-14T05:26:13Z,42.805,6.029,13.3008,4.60049,2470.497,2022-8-14T07:28:03Z
2022-08-14T05:29:16Z,42.805,6.029,13.3012,4.60047,2470.474,2022-8-14T07:31:06Z
2022-08-14T05:32:20Z,42.805,6.029,13.3013,4.60046,2470.507,2022-8-14T07:34:09Z
2022-08-14T05:35:23Z,42.805,6.029,13.3010,4.60049,2470.507,2022-8-14T07:37:12Z
2022-08-14T05:38:26Z,42.805,6.029,13.3014,4.60051,2470.497,2022-8-14T07:40:15Z
2022-08-14T05:41:29Z,42.805,6.029,13.3011,4.60049,2470.483,2022-8-14T07:43:18Z
2022-08-14T05:44:32Z,42.805,6.029,13.3009,4.60047,2470.507,2022-8-14T07:46:21Z
2022-08-14T05:47:35Z,42.805,6.029,13.3011,4.60047,2470.507,2022-8-14T07:49:24Z
2022-08-14T05:50:38Z,42.805,6.029,13.3008,4.60046,2470.52,2022-8-14T07:52:27Z
2022-08-14T05:53:41Z,42.805,6.029,13.3009,4.60049,2470.507,2022-8-14T07:55:31Z
2022-08-14T05:56:45Z,42.805,6.029,13.3009,4.60051,2470.52,2022-8-14T07:58:34Z
2022-08-14T05:59:48Z,42.805,6.029,13.3011,4.60046,2470.507,2022-8-14T08:01:37Z
2022-08-14T06:02:51Z,42.805,6.029,13.3010,4.60046,2470.52,2022-8-14T08:04:40Z
2022-08-14T06:05:54Z,42.805,6.029,13.3013,4.60049,2470.53,2022-8-14T08:07:43Z
2022-08-14T06:08:57Z,42.805,6.029,13.3010,4.60049,2470.53,2022-8-14T08:10:46Z
2022-08-14T06:12:00Z,42.805,6.029,13.3010,4.60047,2470.544,2022-8-14T08:13:49Z
2022-08-14T06:15:03Z,42.805,6.029,13.3013,4.60049,2470.567,2022-8-14T08:16:52Z
2022-08-14T06:18:06Z,42.805,6.029,13.3011,4.60046,2470.544,2022-8-14T08:19:56Z
2022-08-14T06:21:10Z,42.805,6.029,13.3014,4.60053,2470.567,2022-8-14T08:22:59Z
2022-08-14T06:24:13Z,42.805,6.029,13.3009,4.60049,2470.53,2022-8-14T08:26:02Z
2022-08-14T06:27:16Z,42.805,6.029,13.3011,4.60047,2470.577,2022-8-14T08:29:05Z
2022-08-14T06:30:19Z,42.805,6.029,13.3009,4.60046,2470.553,2022-8-14T08:32:08Z
2022-08-14T06:33:22Z,42.805,6.029,13.3011,4.60049,2470.544,2022-8-14T08:35:11Z
2022-08-14T06:36:25Z,42.805,6.029,13.3014,4.60046,2470.553,2022-8-14T08:38:14Z
2022-08-14T06:39:28Z,42.805,6.029,13.3010,4.60046,2470.567,2022-8-14T08:41:17Z
2022-08-14T06:42:31Z,42.805,6.029,13.3011,4.60051,2470.553,2022-8-14T08:44:21Z
2022-08-14T06:45:34Z,42.805,6.029,13.3011,4.60048,2470.553,2022-8-14T08:47:24Z
2022-08-14T06:48:38Z,42.805,6.029,13.3010,4.60049,2470.53,2022-8-14T08:50:27Z
2022-08-14T06:51:41Z,42.805,6.029,13.3011,4.60049,2470.553,2022-8-14T08:53:30Z
2022-08-14T06:54:44Z,42.805,6.029,13.3007,4.60046,2470.577,2022-8-14T08:56:33Z
2022-08-14T06:57:47Z,42.805,6.029,13.3012,4.60048,2470.591,2022-8-14T08:59:36Z
2022-08-14T07:00:50Z,42.805,6.029,13.3009,4.60046,2470.591,2022-8-14T09:02:39Z
2022-08-14T07:03:53Z,42.805,6.029,13.3013,4.60047,2470.577,2022-8-14T09:05:42Z
2022-08-14T07:06:56Z,42.805,6.029,13.3009,4.60049,2470.577,2022-8-14T09:08:46Z
2022-08-14T07:09:59Z,42.805,6.029,13.3011,4.60047,2470.567,2022-8-14T09:11:49Z
2022-08-14T07:13:03Z,42.805,6.029,13.3010,4.60048,2470.553,2022-8-14T09:14:52Z
2022-08-14T07:16:06Z,42.805,6.029,13.3014,4.60046,2470.577,2022-8-14T09:17:55Z
2022-08-14T07:19:09Z,42.805,6.029,13.3014,4.60047,2470.577,2022-8-14T09:20:58Z
2022-08-14T07:22:12Z,42.805,6.029,13.3007,4.60046,2470.577,2022-8-14T09:24:01Z
2022-08-14T07:25:15Z,42.805,6.029,13.3011,4.60049,2470.6,2022-8-14T09:27:04Z
2022-08-14T07:28:18Z,42.805,6.029,13.3010,4.60048,2470.6,2022-8-14T09:30:07Z
2022-08-14T07:31:21Z,42.805,6.029,13.3010,4.60046,2470.591,2022-8-14T09:33:10Z
2022-08-14T07:34:24Z,42.805,6.029,13.3014,4.60049,2470.567,2022-8-14T09:36:14Z
2022-08-14T07:37:28Z,42.805,6.029,13.3011,4.60049,2470.6,2022-8-14T09:39:17Z
2022-08-14T07:40:31Z,42.805,6.029,13.3008,4.60047,2470.6,2022-8-14T09:42:20Z
2022-08-14T07:43:34Z,42.805,6.029,13.3009,4.60048,2470.6,2022-8-14T09:45:23Z
2022-08-14T07:46:37Z,42.805,6.029,13.3009,4.60049,2470.6,2022-8-14T09:48:26Z
2022-08-14T07:49:40Z,42.805,6.029,13.3011,4.60046,2470.591,2022-8-14T09:51:29Z
2022-08-14T07:52:43Z,42.805,6.029,13.3011,4.60046,2470.6,2022-8-14T09:54:32Z
2022-08-14T07:55:46Z,42.805,6.029,13.3011,4.60047,2470.6,2022-8-14T09:57:35Z
2022-08-14T07:58:49Z,42.805,6.029,13.3009,4.60048,2470.6,2022-8-14T10:00:39Z
2022-08-14T08:01:53Z,42.805,6.029,13.3011,4.60047,2470.6,2022-8-14T10:03:42Z
2022-08-14T08:04:56Z,42.805,6.029,13.3014,4.60048,2470.614,2022-8-14T10:06:45Z
2022-08-14T08:07:59Z,42.805,6.029,13.3008,4.60047,2470.577,2022-8-14T10:09:48Z
2022-08-14T08:11:02Z,42.805,6.029,13.3011,4.60047,2470.624,2022-8-14T10:12:51Z
2022-08-14T08:14:05Z,42.805,6.029,13.3012,4.60046,2470.577,2022-8-14T10:15:54Z
2022-08-14T08:17:08Z,42.805,6.029,13.3009,4.60054,2470.6,2022-8-14T10:18:57Z
2022-08-14T08:20:11Z,42.805,6.029,13.3010,4.60047,2470.624,2022-8-14T10:22:00Z
2022-08-14T08:23:14Z,42.805,6.029,13.3009,4.60050,2470.637,2022-8-14T10:25:04Z
2022-08-14T08:26:18Z,42.805,6.029,13.3008,4.60047,2470.563,2022-8-14T10:28:07Z
2022-08-14T08:29:21Z,42.805,6.029,13.3011,4.60049,2470.591,2022-8-14T10:31:10Z
2022-08-14T08:32:24Z,42.805,6.029,13.3010,4.60046,2470.567,2022-8-14T10:34:13Z
2022-08-14T08:35:27Z,42.805,6.029,13.3007,4.60049,2470.577,2022-8-14T10:37:16Z
2022-08-14T08:38:30Z,42.805,6.029,13.3007,4.60049,2470.577,2022-8-14T10:40:19Z
2022-08-14T08:41:33Z,42.805,6.029,13.3009,4.60046,2470.6,2022-8-14T10:43:22Z
2022-08-14T08:44:36Z,42.805,6.029,13.3009,4.60047,2470.637,2022-8-14T10:46:25Z
2022-08-14T08:47:39Z,42.805,6.029,13.3010,4.60046,2470.614,2022-8-14T10:49:29Z
2022-08-14T08:50:43Z,42.805,6.029,13.3010,4.60049,2470.591,2022-8-14T10:52:32Z
2022-08-14T08:53:46Z,42.805,6.029,13.3008,4.60050,2470.6,2022-8-14T10:55:35Z
2022-08-14T08:56:49Z,42.805,6.029,13.3010,4.60048,2470.577,2022-8-14T10:58:38Z
2022-08-14T08:59:52Z,42.805,6.029,13.3013,4.60049,2470.6,2022-8-14T11:01:41Z
2022-08-14T09:02:55Z,42.805,6.029,13.3010,4.60049,2470.6,2022-8-14T11:04:44Z
2022-08-14T09:05:58Z,42.805,6.029,13.3009,4.60054,2470.614,2022-8-14T11:07:47Z
2022-08-14T09:09:01Z,42.805,6.029,13.3009,4.60047,2470.567,2022-8-14T11:10:51Z
2022-08-14T09:12:04Z,42.805,6.029,13.3013,4.60047,2470.567,2022-8-14T11:13:54Z
2022-08-14T09:15:08Z,42.805,6.029,13.3009,4.60051,2470.577,2022-8-14T11:16:57Z
2022-08-14T09:18:11Z,42.805,6.029,13.3012,4.60052,2470.614,2022-8-14T11:20:00Z
2022-08-14T09:21:14Z,42.805,6.029,13.3011,4.60049,2470.577,2022-8-14T11:23:03Z
2022-08-14T09:24:17Z,42.805,6.029,13.3011,4.60053,2470.6,2022-8-14T11:26:06Z
2022-08-14T09:27:20Z,42.805,6.029,13.3011,4.60049,2470.567,2022-8-14T11:29:09Z
2022-08-14T09:30:23Z,42.805,6.029,13.3011,4.60047,2470.577,2022-8-14T11:32:12Z
2022-08-14T09:33:26Z,42.805,6.029,13.3006,4.60050,2470.563,2022-8-14T11:35:16Z
2022-08-14T09:36:29Z,42.805,6.029,13.3011,4.60049,2470.591,2022-8-14T11:38:19Z
2022-08-14T09:39:33Z,42.805,6.029,13.3009,4.60046,2470.553,2022-8-14T11:41:22Z
2022-08-14T09:42:36Z,42.805,6.029,13.3010,4.60046,2470.577,2022-8-14T11:44:25Z
2022-08-14T09:45:39Z,42.805,6.029,13.3012,4.60048,2470.577,2022-8-14T11:47:28Z
2022-08-14T09:48:42Z,42.805,6.029,13.3012,4.60049,2470.591,2022-8-14T11:50:31Z
2022-08-14T09:51:45Z,42.805,6.029,13.3010,4.60047,2470.577,2022-8-14T11:53:34Z
2022-08-14T09:54:48Z,42.805,6.029,13.3009,4.60047,2470.577,2022-8-14T11:56:37Z
2022-08-14T09:57:51Z,42.805,6.029,13.3010,4.60047,2470.553,2022-8-14T11:59:41Z
2022-08-14T10:00:54Z,42.805,6.029,13.3012,4.60049,2470.553,2022-8-14T12:02:44Z
2022-08-14T10:03:58Z,42.805,6.029,13.3009,4.60050,2470.567,2022-8-14T12:05:47Z
2022-08-14T10:07:01Z,42.805,6.029,13.3010,4.60052,2470.544,2022-8-14T12:08:50Z
2022-08-14T10:10:04Z,42.805,6.029,13.3014,4.60051,2470.553,2022-8-14T12:11:53Z
2022-08-14T10:13:07Z,42.805,6.029,13.3013,4.60047,2470.53,2022-8-14T12:14:56Z
2022-08-14T10:16:10Z,42.805,6.029,13.3011,4.60047,2470.553,2022-8-14T12:17:59Z
2022-08-14T10:19:13Z,42.805,6.029,13.3011,4.60049,2470.577,2022-8-14T12:21:02Z
2022-08-14T10:22:16Z,42.805,6.029,13.3011,4.60049,2470.591,2022-8-14T12:24:06Z
2022-08-14T10:25:19Z,42.805,6.029,13.3009,4.60047,2470.591,2022-8-14T12:27:09Z
2022-08-14T10:28:23Z,42.805,6.029,13.3011,4.60050,2470.567,2022-8-14T12:30:12Z
2022-08-14T10:31:26Z,42.805,6.029,13.3009,4.60049,2470.53,2022-8-14T12:33:15Z
2022-08-14T10:34:29Z,42.805,6.029,13.3011,4.60048,2470.53,2022-8-14T12:36:18Z
2022-08-14T10:37:32Z,42.805,6.029,13.3009,4.60059,2470.507,2022-8-14T12:39:21Z
2022-08-14T10:40:35Z,42.805,6.029,13.3010,4.60049,2470.507,2022-8-14T12:42:24Z
2022-08-14T10:43:38Z,42.805,6.029,13.3013,4.60046,2470.544,2022-8-14T12:45:27Z
2022-08-14T10:46:41Z,42.805,6.029,13.3009,4.60049,2470.544,2022-8-14T12:48:31Z
2022-08-14T10:49:44Z,42.805,6.029,13.3010,4.60048,2470.553,2022-8-14T12:51:34Z
2022-08-14T10:52:48Z,42.805,6.029,13.3007,4.60053,2470.53,2022-8-14T12:54:37Z
2022-08-14T10:55:51Z,42.805,6.029,13.3011,4.60047,2470.53,2022-8-14T12:57:40Z
2022-08-14T10:58:54Z,42.805,6.029,13.3011,4.60049,2470.53,2022-8-14T13:00:43Z
2022-08-14T11:01:57Z,42.805,6.029,13.3006,4.60051,2470.567,2022-8-14T13:03:46Z
2022-08-14T11:05:00Z,42.805,6.029,13.3014,4.60054,2470.544,2022-8-14T13:06:49Z
2022-08-14T11:08:03Z,42.805,6.029,13.3013,4.60051,2470.53,2022-8-14T13:09:52Z
2022-08-14T11:11:06Z,42.805,6.029,13.3011,4.60050,2470.53,2022-8-14T13:12:56Z
2022-08-14T11:14:09Z,42.805,6.029,13.3010,4.60049,2470.544,2022-8-14T13:15:59Z
2022-08-14T11:17:13Z,42.805,6.029,13.3009,4.60049,2470.53,2022-8-14T13:19:02Z
2022-08-14T11:20:16Z,42.805,6.029,13.3010,4.60049,2470.53,2022-8-14T13:22:05Z
2022-08-14T11:23:19Z,42.805,6.029,13.3009,4.60049,2470.544,2022-8-14T13:25:08Z
2022-08-14T11:26:22Z,42.805,6.029,13.3008,4.60049,2470.507,2022-8-14T13:28:11Z
2022-08-14T11:29:25Z,42.805,6.029,13.3011,4.60047,2470.544,2022-8-14T13:31:14Z
2022-08-14T11:32:28Z,42.805,6.029,13.3011,4.60053,2470.544,2022-8-14T13:34:17Z
2022-08-14T11:35:31Z,42.805,6.029,13.3011,4.60061,2470.53,2022-8-14T13:37:21Z
2022-08-14T11:38:35Z,42.805,6.029,13.3009,4.60065,2470.47,2022-8-14T13:40:24Z
2022-08-14T11:41:38Z,42.805,6.029,13.3014,4.60055,2470.53,2022-8-14T13:43:27Z
2022-08-14T11:44:41Z,42.805,6.029,13.3011,4.60049,2470.507,2022-8-14T13:46:30Z
2022-08-14T11:47:44Z,42.805,6.029,13.3009,4.60049,2470.507,2022-8-14T13:49:33Z
2022-08-14T11:50:47Z,42.805,6.029,13.3010,4.60055,2470.544,2022-8-14T13:52:36Z
2022-08-14T11:53:50Z,42.805,6.029,13.3010,4.60051,2470.507,2022-8-14T13:55:39Z
2022-08-14T11:56:53Z,42.805,6.029,13.3014,4.60051,2470.53,2022-8-14T13:58:42Z
2022-08-14T11:59:56Z,42.805,6.029,13.3011,4.60049,2470.52,2022-8-14T14:01:46Z
2022-08-14T12:03:00Z,42.805,6.029,13.3011,4.60052,2470.52,2022-8-14T14:04:49Z
2022-08-14T12:06:03Z,42.805,6.029,13.3011,4.60053,2470.544,2022-8-14T14:07:52Z
2022-08-14T12:09:06Z,42.805,6.029,13.3011,4.60050,2470.52,2022-8-14T14:10:55Z
2022-08-14T12:12:09Z,42.805,6.029,13.3011,4.60048,2470.544,2022-8-14T14:13:58Z
2022-08-14T12:15:12Z,42.805,6.029,13.3011,4.60051,2470.52,2022-8-14T14:17:01Z
2022-08-14T12:18:15Z,42.805,6.029,13.3011,4.60053,2470.483,2022-8-14T14:20:04Z
2022-08-14T12:21:18Z,42.805,6.029,13.3012,4.60061,2470.507,2022-8-14T14:23:07Z
2022-08-14T12:24:21Z,42.805,6.029,13.3014,4.60056,2470.483,2022-8-14T14:26:11Z
2022-08-14T12:27:25Z,42.805,6.029,13.3010,4.60049,2470.507,2022-8-14T14:29:14Z
2022-08-14T12:30:28Z,42.805,6.029,13.3009,4.60054,2470.497,2022-8-14T14:32:17Z
2022-08-14T12:33:31Z,42.805,6.029,13.3013,4.60055,2470.46,2022-8-14T14:35:20Z
2022-08-14T12:36:34Z,42.805,6.029,13.3011,4.60057,2470.46,2022-8-14T14:38:23Z
2022-08-14T12:39:37Z,42.805,6.029,13.3012,4.60049,2470.474,2022-8-14T14:41:26Z
2022-08-14T12:42:40Z,42.805,6.029,13.3011,4.60052,2470.483,2022-8-14T14:44:29Z
2022-08-14T12:45:43Z,42.805,6.029,13.3010,4.60049,2470.497,2022-8-14T14:47:32Z
2022-08-14T12:48:46Z,42.805,6.029,13.3012,4.60057,2470.45,2022-8-14T14:50:36Z
2022-08-14T12:51:50Z,42.805,6.029,13.3006,4.60055,2470.46,2022-8-14T14:53:39Z
2022-08-14T12:54:53Z,42.805,6.029,13.3010,4.60053,2470.45,2022-8-14T14:56:42Z
2022-08-14T12:57:56Z,42.805,6.029,13.3011,4.60053,2470.474,2022-8-14T14:59:45Z
2022-08-14T13:00:59Z,42.805,6.029,13.3011,4.60055,2470.483,2022-8-14T15:02:48Z
2022-08-14T13:04:02Z,42.805,6.029,13.3010,4.60049,2470.437,2022-8-14T15:05:51Z
2022-08-14T13:07:05Z,42.805,6.029,13.3014,4.60056,2470.483,2022-8-14T15:08:54Z
2022-08-14T13:10:08Z,42.805,6.029,13.3012,4.60053,2470.474,2022-8-14T15:11:57Z
2022-08-14T13:13:11Z,42.805,6.029,13.3009,4.60057,2470.427,2022-8-14T15:15:01Z
2022-08-14T13:16:15Z,42.805,6.029,13.3013,4.60052,2470.437,2022-8-14T15:18:04Z
2022-08-14T13:19:18Z,42.805,6.029,13.3014,4.60049,2470.437,2022-8-14T15:21:07Z
2022-08-14T13:22:21Z,42.805,6.029,13.3009,4.60057,2470.46,2022-8-14T15:24:10Z
2022-08-14T13:25:24Z,42.805,6.029,13.3014,4.60055,2470.45,2022-8-14T15:27:13Z
2022-08-14T13:28:27Z,42.805,6.029,13.3013,4.60053,2470.437,2022-8-14T15:30:16Z
2022-08-14T13:31:30Z,42.805,6.029,13.3009,4.60054,2470.474,2022-8-14T15:33:19Z
2022-08-14T13:34:33Z,42.805,6.029,13.3010,4.60054,2470.474,2022-8-14T15:36:22Z
2022-08-14T13:37:36Z,42.805,6.029,13.3009,4.60052,2470.474,2022-8-14T15:39:26Z
2022-08-14T13:40:40Z,42.805,6.029,13.3015,4.60050,2470.437,2022-8-14T15:42:29Z
2022-08-14T13:43:43Z,42.805,6.029,13.3008,4.60052,2470.45,2022-8-14T15:45:32Z
2022-08-14T13:46:46Z,42.805,6.029,13.3006,4.60055,2470.437,2022-8-14T15:48:35Z
2022-08-14T13:49:49Z,42.805,6.029,13.3010,4.60049,2470.45,2022-8-14T15:51:38Z
2022-08-14T13:52:52Z,42.805,6.029,13.3011,4.60053,2470.46,2022-8-14T15:54:41Z
2022-08-14T13:55:55Z,42.805,6.029,13.3009,4.60055,2470.437,2022-8-14T15:57:44Z
2022-08-14T13:58:58Z,42.805,6.029,13.3009,4.60057,2470.413,2022-8-14T16:00:47Z
2022-08-14T14:02:01Z,42.805,6.029,13.3010,4.60054,2470.404,2022-8-14T16:03:51Z
2022-08-14T14:05:05Z,42.805,6.029,13.3009,4.60054,2470.437,2022-8-14T16:06:54Z
2022-08-14T14:08:08Z,42.805,6.029,13.3010,4.60050,2470.413,2022-8-14T16:09:57Z
2022-08-14T14:11:11Z,42.805,6.029,13.3010,4.60049,2470.45,2022-8-14T16:13:00Z
2022-08-14T14:14:14Z,42.805,6.029,13.3013,4.60053,2470.413,2022-8-14T16:16:03Z
2022-08-14T14:17:17Z,42.805,6.029,13.3009,4.60052,2470.45,2022-8-14T16:19:06Z
2022-08-14T14:20:20Z,42.805,6.029,13.3009,4.60050,2470.437,2022-8-14T16:22:09Z
2022-08-14T14:23:23Z,42.805,6.029,13.3014,4.60051,2470.413,2022-8-14T16:25:12Z
2022-08-14T14:26:26Z,42.805,6.029,13.3011,4.60050,2470.427,2022-8-14T16:28:16Z
2022-08-14T14:29:30Z,42.805,6.029,13.3011,4.60052,2470.437,2022-8-14T16:31:19Z
2022-08-14T14:32:33Z,42.805,6.029,13.3015,4.60053,2470.437,2022-8-14T16:34:22Z
2022-08-14T14:35:36Z,42.805,6.029,13.3009,4.60051,2470.413,2022-8-14T16:37:25Z
2022-08-14T14:38:39Z,42.805,6.029,13.3011,4.60049,2470.413,2022-8-14T16:40:28Z
2022-08-14T14:41:42Z,42.805,6.029,13.3009,4.60051,2470.413,2022-8-14T16:43:31Z
2022-08-14T14:44:45Z,42.805,6.029,13.3014,4.60050,2470.413,2022-8-14T16:46:34Z
2022-08-14T14:47:48Z,42.805,6.029,13.3009,4.60048,2470.437,2022-8-14T16:49:38Z
2022-08-14T14:50:51Z,42.805,6.029,13.3013,4.60052,2470.413,2022-8-14T16:52:41Z
2022-08-14T14:53:55Z,42.805,6.029,13.3008,4.60052,2470.413,2022-8-14T16:55:44Z
2022-08-14T14:56:58Z,42.805,6.029,13.3009,4.60050,2470.39,2022-8-14T16:58:47Z
2022-08-14T15:00:01Z,42.805,6.029,13.3013,4.60052,2470.437,2022-8-14T17:01:50Z
2022-08-14T15:03:04Z,42.805,6.029,13.3009,4.60054,2470.39,2022-8-14T17:04:53Z
2022-08-14T15:06:07Z,42.805,6.029,13.3011,4.60054,2470.413,2022-8-14T17:07:56Z
2022-08-14T15:09:10Z,42.805,6.029,13.3013,4.60050,2470.404,2022-8-14T17:10:59Z
2022-08-14T15:12:13Z,42.805,6.029,13.3013,4.60049,2470.404,2022-8-14T17:14:03Z
2022-08-14T15:15:16Z,42.805,6.029,13.3009,4.60054,2470.427,2022-8-14T17:17:06Z